Вернуться в каталог

STARLINK-3154

АктивенСвязьVLEO
NORAD 49417·PAYLOAD·🇺🇸 United States

Запущен Nov 13, 2021 с Cape Canaveral Space Force Station

Loading…

Ближайшие Пролёты (ближайшие 24 часа)

TLE

СвежийSource: CelesTrak SupGP

Эпоха: Sep 14, 2026, 20:55 UTC

1 49417C 21104K   26257.87201389  .00024860  00000+0  73486-3 0  2570
2 49417  53.1585  78.3783 0001198  82.6804  29.0477 15.34362273    13

Отслеживайте STARLINK-3154 в реальном времени с AllMySat

Download on the App Store